BXS1836 YBHM-YBTL

Flight info

Callsign BXS1836
Flight time 0h 32m
Altitude 16000
Route ALBUX DCT WALTA DCT POROB
Aircraft A321/M-SDE3FGHIRWY/LB1

Departure

Time 2026-04-21 09:42
Airport Hamilton Island Airport (YBHM)

Arrival

Time 2026-04-21 10:14
Airport Townsville Airport / RAAF Base Townsville (YBTL)
Time Latitude Longitude Altitude Speed Heading
2026-04-21 09:22 -20.35285 148.95022 20 ft 0 kts
2026-04-21 09:30 -20.35293 148.95022 20 ft 4 kts
2026-04-21 09:31 -20.35315 148.95015 21 ft 4 kts 59°
2026-04-21 09:31 -20.35314 148.94996 23 ft 4 kts 127°
2026-04-21 09:31 -20.35295 148.94976 24 ft 4 kts 144°
2026-04-21 09:31 -20.35291 148.94972 21 ft 0 kts 146°
2026-04-21 09:34 -20.35292 148.94973 20 ft 0 kts 146°
2026-04-21 09:35 -20.35301 148.94979 22 ft 3 kts 146°
2026-04-21 09:35 -20.35327 148.94996 20 ft 6 kts 155°
2026-04-21 09:35 -20.35368 148.94989 20 ft 7 kts 218°
2026-04-21 09:35 -20.35376 148.94981 21 ft 0 kts 226°
2026-04-21 09:38 -20.35379 148.94977 20 ft 1 kts 226°
2026-04-21 09:38 -20.35389 148.94966 22 ft 3 kts 226°
2026-04-21 09:38 -20.35408 148.94932 21 ft 7 kts 253°
2026-04-21 09:38 -20.35380 148.94871 22 ft 13 kts 316°
2026-04-21 09:39 -20.35294 148.94801 21 ft 18 kts 322°
2026-04-21 09:39 -20.35185 148.94714 19 ft 17 kts 324°
2026-04-21 09:39 -20.35118 148.94634 20 ft 13 kts 327°
2026-04-21 09:39 -20.35084 148.94660 20 ft 4 kts 118°
2026-04-21 09:40 -20.35121 148.94668 19 ft 9 kts 151°
2026-04-21 09:40 -20.35125 148.94671 19 ft 0 kts 144°
2026-04-21 09:41 -20.35131 148.94676 19 ft 10 kts 144°
2026-04-21 09:41 -20.35405 148.94893 22 ft 84 kts 142°
2026-04-21 09:41 -20.36022 148.95394 28 ft 136 kts 141°
2026-04-21 09:42 -20.36762 148.95987 691 ft 128 kts 140°
2026-04-21 09:42 -20.37459 148.96567 1341 ft 128 kts 142°
2026-04-21 09:42 -20.38217 148.97082 1860 ft 137 kts 158°
2026-04-21 09:42 -20.39249 148.96978 2094 ft 170 kts 201°
2026-04-21 09:43 -20.40076 148.95927 2305 ft 208 kts 250°
2026-04-21 09:43 -20.40005 148.94306 2510 ft 237 kts 287°
2026-04-21 09:43 -20.39273 148.92621 2806 ft 263 kts 299°
2026-04-21 09:43 -20.38288 148.90890 3311 ft 282 kts 302°
2026-04-21 09:44 -20.37207 148.89078 3935 ft 294 kts 302°
2026-04-21 09:44 -20.36122 148.87213 4777 ft 299 kts 301°
2026-04-21 09:44 -20.35057 148.85302 5658 ft 301 kts 299°
2026-04-21 09:44 -20.34023 148.83368 6614 ft 300 kts 298°
2026-04-21 09:45 -20.33009 148.81422 7468 ft 301 kts 297°
2026-04-21 09:45 -20.31997 148.79454 8312 ft 304 kts 297°
2026-04-21 09:45 -20.30982 148.77473 9163 ft 305 kts 297°
2026-04-21 09:45 -20.29979 148.75508 9981 ft 308 kts 297°
2026-04-21 09:46 -20.28920 148.73438 10411 ft 325 kts 297°
2026-04-21 09:46 -20.27799 148.71248 10611 ft 348 kts 297°
2026-04-21 09:46 -20.26620 148.68953 11146 ft 356 kts 297°
2026-04-21 09:46 -20.25419 148.66623 11810 ft 362 kts 297°
2026-04-21 09:47 -20.24202 148.64265 12519 ft 364 kts 297°
2026-04-21 09:47 -20.22975 148.61890 13254 ft 367 kts 296°
2026-04-21 09:47 -20.21744 148.59498 13964 ft 369 kts 296°
2026-04-21 09:47 -20.20507 148.57095 14573 ft 372 kts 296°
2026-04-21 09:48 -20.19274 148.54699 15198 ft 375 kts 296°
2026-04-21 09:48 -20.17998 148.52221 15811 ft 378 kts 296°
2026-04-21 09:48 -20.16730 148.49768 16051 ft 379 kts 297°
2026-04-21 09:48 -20.15457 148.47306 16119 ft 380 kts 296°
2026-04-21 09:49 -20.14199 148.44876 16130 ft 380 kts 297°
2026-04-21 09:49 -20.12907 148.42381 16130 ft 379 kts 297°
2026-04-21 09:49 -20.11656 148.39959 16130 ft 379 kts 296°
2026-04-21 09:49 -20.10386 148.37497 16130 ft 379 kts 296°
2026-04-21 09:50 -20.09114 148.35036 16129 ft 379 kts 297°
2026-04-21 09:50 -20.08683 148.34205 16128 ft 379 kts 297°
2026-04-21 09:50 -20.05297 148.27660 16125 ft 379 kts 297°
2026-04-21 09:51 -20.04024 148.25209 16119 ft 379 kts 297°
2026-04-21 09:51 -20.02751 148.22752 16120 ft 379 kts 297°
2026-04-21 09:51 -20.01479 148.20294 16120 ft 379 kts 297°
2026-04-21 09:51 -20.00194 148.17841 16118 ft 379 kts 297°
2026-04-21 09:52 -19.98899 148.15394 16119 ft 380 kts 297°
2026-04-21 09:52 -19.97606 148.12955 16123 ft 380 kts 297°
2026-04-21 09:52 -19.96307 148.10502 16124 ft 380 kts 297°
2026-04-21 09:52 -19.95016 148.08062 16126 ft 380 kts 297°
2026-04-21 09:53 -19.93722 148.05615 16124 ft 380 kts 297°
2026-04-21 09:53 -19.92431 148.03165 16123 ft 380 kts 297°
2026-04-21 09:53 -19.91142 148.00715 16124 ft 380 kts 297°
2026-04-21 09:53 -19.89851 147.98267 16126 ft 380 kts 297°
2026-04-21 09:54 -19.88562 147.95826 16127 ft 380 kts 297°
2026-04-21 09:54 -19.87705 147.94205 16119 ft 380 kts 296°
2026-04-21 09:54 -19.85987 147.90965 16116 ft 380 kts 296°
2026-04-21 09:54 -19.84694 147.88526 16114 ft 380 kts 296°
2026-04-21 09:55 -19.83396 147.86076 16113 ft 380 kts 296°
2026-04-21 09:55 -19.82096 147.83626 16112 ft 381 kts 297°
2026-04-21 09:55 -19.81217 147.81971 16114 ft 381 kts 297°
2026-04-21 09:55 -19.79932 147.79552 16116 ft 381 kts 296°
2026-04-21 09:56 -19.78613 147.77070 16116 ft 381 kts 296°
2026-04-21 09:56 -19.77331 147.74650 16119 ft 381 kts 297°
2026-04-21 09:56 -19.76034 147.72200 16124 ft 380 kts 297°
2026-04-21 09:56 -19.74736 147.69752 16123 ft 380 kts 296°
2026-04-21 09:57 -19.73438 147.67303 16123 ft 380 kts 297°
2026-04-21 09:57 -19.72138 147.64856 16121 ft 380 kts 297°
2026-04-21 09:57 -19.70842 147.62418 16125 ft 380 kts 297°
2026-04-21 09:57 -19.69601 147.59945 16122 ft 378 kts 291°
2026-04-21 09:58 -19.68768 147.57313 16114 ft 375 kts 281°
2026-04-21 09:58 -19.68291 147.54595 16117 ft 374 kts 278°
2026-04-21 09:58 -19.67831 147.51876 16119 ft 374 kts 278°
2026-04-21 09:58 -19.67368 147.49155 16119 ft 374 kts 278°
2026-04-21 09:59 -19.66901 147.46436 16119 ft 375 kts 278°
2026-04-21 09:59 -19.66431 147.43717 16126 ft 374 kts 278°
2026-04-21 09:59 -19.65961 147.41005 16126 ft 374 kts 278°
2026-04-21 09:59 -19.65491 147.38285 16123 ft 374 kts 278°
2026-04-21 10:00 -19.65021 147.35576 16122 ft 374 kts 278°
2026-04-21 10:00 -19.64549 147.32856 16125 ft 374 kts 278°
2026-04-21 10:00 -19.64086 147.30177 16126 ft 374 kts 278°
2026-04-21 10:00 -19.63402 147.27485 16123 ft 376 kts 291°
2026-04-21 10:01 -19.62050 147.25102 16116 ft 380 kts 308°
2026-04-21 10:01 -19.60129 147.23199 15680 ft 379 kts 324°
2026-04-21 10:01 -19.57797 147.21989 15195 ft 378 kts 341°
2026-04-21 10:01 -19.55269 147.21138 14732 ft 376 kts 342°
2026-04-21 10:02 -19.50348 147.19474 13786 ft 371 kts 341°
2026-04-21 10:02 -19.47902 147.18637 13293 ft 368 kts 342°
2026-04-21 10:02 -19.45473 147.17803 12826 ft 365 kts 342°
2026-04-21 10:03 -19.43073 147.16978 12367 ft 362 kts 342°
2026-04-21 10:03 -19.40684 147.16158 11920 ft 360 kts 342°
2026-04-21 10:03 -19.38317 147.15344 11457 ft 357 kts 342°
2026-04-21 10:03 -19.35973 147.14488 11006 ft 356 kts 338°
2026-04-21 10:04 -19.33826 147.13197 10550 ft 355 kts 323°
2026-04-21 10:04 -19.32029 147.11454 10318 ft 345 kts 314°
2026-04-21 10:04 -19.30380 147.09661 10200 ft 333 kts 314°
2026-04-21 10:04 -19.28781 147.07947 10076 ft 321 kts 315°
2026-04-21 10:05 -19.27223 147.06286 9763 ft 315 kts 315°
2026-04-21 10:05 -19.25559 147.04805 9279 ft 311 kts 328°
2026-04-21 10:05 -19.23719 147.03634 8805 ft 309 kts 330°
2026-04-21 10:05 -19.21878 147.02465 8319 ft 308 kts 330°
2026-04-21 10:06 -19.20053 147.01298 7864 ft 305 kts 329°
2026-04-21 10:06 -19.18267 147.00152 7399 ft 303 kts 329°
2026-04-21 10:06 -19.16452 146.98986 6928 ft 301 kts 330°
2026-04-21 10:06 -19.14685 146.97852 6465 ft 300 kts 329°
2026-04-21 10:07 -19.12897 146.96705 5786 ft 304 kts 330°
2026-04-21 10:07 -19.11078 146.95540 5293 ft 300 kts 330°
2026-04-21 10:07 -19.09380 146.94431 5193 ft 275 kts 326°
2026-04-21 10:07 -19.08119 146.93082 5213 ft 245 kts 302°
2026-04-21 10:08 -19.07479 146.91549 5222 ft 214 kts 280°
2026-04-21 10:08 -19.07310 146.90093 5215 ft 191 kts 269°
2026-04-21 10:08 -19.07212 146.88735 5212 ft 178 kts 269°
2026-04-21 10:08 -19.07132 146.87464 5205 ft 170 kts 265°
2026-04-21 10:09 -19.07338 146.86271 5208 ft 162 kts 242°
2026-04-21 10:09 -19.07894 146.85275 5200 ft 153 kts 219°
2026-04-21 10:09 -19.08673 146.84574 4923 ft 143 kts 199°
2026-04-21 10:09 -19.09566 146.84134 4581 ft 143 kts 195°
2026-04-21 10:10 -19.10485 146.83704 4223 ft 146 kts 195°
2026-04-21 10:10 -19.11413 146.83267 3877 ft 145 kts 193°
2026-04-21 10:10 -19.12358 146.82827 3370 ft 156 kts 195°
2026-04-21 10:10 -19.13408 146.82340 2735 ft 170 kts 196°
2026-04-21 10:11 -19.14509 146.81823 2151 ft 174 kts 198°
2026-04-21 10:11 -19.15570 146.81312 1835 ft 161 kts 198°
2026-04-21 10:11 -19.16558 146.80842 1597 ft 152 kts 196°
2026-04-21 10:11 -19.17510 146.80397 1393 ft 148 kts 195°
2026-04-21 10:12 -19.18453 146.79953 1197 ft 148 kts 198°
2026-04-21 10:12 -19.19388 146.79512 999 ft 146 kts 196°
2026-04-21 10:12 -19.20307 146.79078 811 ft 145 kts 197°
2026-04-21 10:12 -19.21219 146.78645 625 ft 143 kts 197°
2026-04-21 10:13 -19.22115 146.78225 415 ft 140 kts 199°
2026-04-21 10:13 -19.22996 146.77814 250 ft 139 kts 199°
2026-04-21 10:13 -19.23886 146.77393 94 ft 138 kts 198°
2026-04-21 10:13 -19.24733 146.76997 28 ft 125 kts 201°
2026-04-21 10:14 -19.25289 146.76737 19 ft 58 kts 206°
2026-04-21 10:14 -19.25637 146.76569 23 ft 44 kts 204°
2026-04-21 10:14 -19.25802 146.76505 23 ft 19 kts 169°
2026-04-21 10:14 -19.25851 146.76556 24 ft 0 kts 108°
2026-04-21 10:15 -19.25851 146.76557 23 ft 0 kts 108°
2026-04-21 10:15 -19.25852 146.76562 23 ft 1 kts 104°
2026-04-21 10:15 -19.25852 146.76570 23 ft 1 kts 91°
2026-04-21 10:15 -19.25851 146.76579 23 ft 2 kts 79°
2026-04-21 10:16 -19.25840 146.76599 24 ft 4 kts 55°
2026-04-21 10:16 -19.25811 146.76625 22 ft 7 kts 36°
2026-04-21 10:16 -19.25763 146.76654 22 ft 9 kts 27°
2026-04-21 10:16 -19.25702 146.76688 23 ft 11 kts 27°
2026-04-21 10:17 -19.25632 146.76727 23 ft 12 kts 27°
2026-04-21 10:17 -19.25554 146.76770 22 ft 13 kts 27°
2026-04-21 10:17 -19.25469 146.76817 22 ft 14 kts 27°
2026-04-21 10:17 -19.25407 146.76852 22 ft 0 kts 28°
2026-04-21 10:18 -19.25405 146.76853 22 ft 1 kts 28°
2026-04-21 10:18 -19.25396 146.76858 23 ft 2 kts 28°
2026-04-21 10:18 -19.25381 146.76866 22 ft 0 kts 28°
2026-04-21 10:20 -19.25379 146.76868 22 ft 1 kts 29°
2026-04-21 10:20 -19.25376 146.76874 22 ft 1 kts 63°
2026-04-21 10:20 -19.25379 146.76879 24 ft 1 kts 105°
2026-04-21 10:21 -19.25389 146.76894 24 ft 4 kts 130°
2026-04-21 10:21 -19.25413 146.76922 23 ft 6 kts 133°
2026-04-21 10:21 -19.25451 146.76950 22 ft 7 kts 164°
2026-04-21 10:21 -19.25508 146.76946 22 ft 9 kts 192°
2026-04-21 10:22 -19.25572 146.76927 22 ft 10 kts 196°
2026-04-21 10:22 -19.25618 146.76917 22 ft 4 kts 169°
2026-04-21 10:22 -19.25638 146.76940 22 ft 4 kts 115°
2026-04-21 10:22 -19.25649 146.76970 22 ft 4 kts 108°
2026-04-21 10:23 -19.25651 146.76977 22 ft 0 kts 107°